Location: Losili
(4.4086°N, 32.7049°E)
Time: 16:08:03
(UTC+00:00)

YAOGAN 6 - Pass Details

Date: 18 September 2019
Orbit: 466 x 505 km, 97.0° (Epoch: 20 October)

Event Time Altitude Azimuth Distance (km) Brightness Sun altitude
Rises 16:24:17 0° 163° (SSE) 2,532 6.0 -10.1°
Reaches altitude 10° 16:26:21 10° 159° (SSE) 1,659 5.0 -10.6°
Maximum altitude 16:29:52 59° 79° (E) 565 2.6 -11.4°
Drops below altitude 10° 16:33:25 10° 359° (N) 1,676 5.3 -12.3°
Sets 16:35:31 0° 355° (N) 2,562 6.3 -12.8°
